Location: Grand Rapids
(42.9630°N, 85.6680°W)
Time: 03:08:43
(UTC-04:00)

A-11 Canister half - Pass Details

Date: 04 June 2024
Orbit: 1524 x 1684 km, 47.3° (Epoch: 21 June)

Event Time Altitude Azimuth Distance (km) Brightness Sun altitude
Rises 17:54:13 0° 207° (SSW) 4,674 11.9 34.4°
Reaches altitude 10° 17:57:31 10° 200° (SSW) 3,686 11.3 33.8°
Maximum altitude 18:05:50 39° 136° (SE) 2,142 9.8 32.3°
Drops below altitude 10° 18:14:13 10° 72° (ENE) 3,715 10.6 30.8°
Sets 18:17:31 0° 65° (ENE) 4,715 11.1 30.2°
